Location: Village de las Huertas
(35.3014°N, 106.4095°W)
Time: 07:56:13
(UTC+00:00)

Cosmos 1400 Rocket - Pass Details

Date: 29 October 2020
Orbit: 521 x 568 km, 81.2° (Epoch: 04 December)

Event Time Altitude Azimuth Distance (km) Brightness Sun altitude
Rises 12:46:29 0° 334° (NNW) 2,680 6.0 -8.4°
Reaches altitude 10° 12:49:02 10° 318° (NW) 1,778 4.9 -7.9°
Maximum altitude 12:51:58 21° 270° (W) 1,234 4.0 -7.3°
Drops below altitude 10° 12:54:52 10° 220° (SW) 1,754 5.1 -6.8°
Sets 12:57:22 0° 204° (SSW) 2,633 6.2 -6.3°
